User: anonymous   Login
Location: Harbor Hills
(33.7803°N, 118.3148°W)
Time: 13:46:27
(UTC+00:00)
Language:

Cosmos 2221 Rocket - Orbit

View from above orbital plane
View from above orbital plane
View from above satellite
View from above satellite

Ground track
Ground track

The orbit data is extracted from the following two-line orbital elements,

1 22237U 92080B   24278.75982047  .00001863  00000-0  24501-3 0  9993
2 22237  82.5128 156.1915 0020601 119.7880 240.5386 14.79578454717383
Epoch (UTC): 04 October 2024 18:14:08
Eccentricity: 0.0020601
inclination: 82.5128°
perigee height: 616 km
apogee height: 645 km
right ascension of ascending node: 156.1915°
argument of perigee: 119.7880°
revolutions per day: 14.79578454
mean anomaly at epoch: 240.5386°
orbit number at epoch: 71738

The dashed part of the orbit path shows where the satellite is in the earth's shadow,  

DLR